Regional Weather Roundup
Issued by NWS

Home | Current Version | Previous Version | Graphics & Text | Print | Product List | Glossary On
Versions: 1 2 3 4 5 6 7 8 9 10 11 12 13 14 15 16 17 18 19 20 21 22 23 24 25 26 27 28 29 30 31 32 33 34 35 36 37 38 39 40 41 42 43 44 45 46 47 48 49 50
750
ASUS43 KBIS 220902
RWRND

NORTH DAKOTA REGIONAL WEATHER ROUNDUP
NATIONAL WEATHER SERVICE BISMARCK ND
300 AM CST THU FEB 22 2018

NOTE: "FAIR" INDICATES FEW OR NO CLOUDS BELOW 12,000 FEET WITH NO
SIGNIFICANT WEATHER AND/OR OBSTRUCTIONS TO VISIBILITY.


NDZ001>003-009>011-017-221000-
NORTHWEST NORTH DAKOTA

CITY           SKY/WX    TMP DP  RH WIND       PRES   REMARKS
WILLISTON      FAIR      -5 -11  75 SW3       30.24S
MINOT          FAIR      -2  -8  76 SE10      30.27F WCI -19
MINOT AFB      FAIR      -6 -12  78 SE7       30.26F WCI -21
$$

NDZ018>021-031>035-040>046-221000-
SOUTHWEST NORTH DAKOTA

CITY           SKY/WX    TMP DP  RH WIND       PRES   REMARKS
BISMARCK       FAIR      -7 -11  83 E6        30.34F WCI -20
DICKINSON      FAIR      -5 -13  68 SW7       30.17F WCI -19
GARRISON         N/A     -8 -12  83 SE3       30.29F
HETTINGER ARPT FAIR     -19 -22  86 CALM      30.21F
$$

NDZ004>008-012>016-024-026-027-054-221000-
NORTHEAST NORTH DAKOTA

CITY           SKY/WX    TMP DP  RH WIND       PRES   REMARKS
GRAND FORKS    FAIR      -4  -8  83 SE8       30.49F WCI -19
GRND FRKS AFB  CLEAR     -4  -9  80 S6        30.47F WCI -16
DEVILS LAKE    FAIR      -7 -10  87 SE8       30.38F WCI -23
$$

NDZ022-023-025-028>030-036>039-047>053-221000-
SOUTHEAST NORTH DAKOTA

CITY           SKY/WX    TMP DP  RH WIND       PRES   REMARKS
FARGO          FAIR       4  -3  73 SE12      30.50F WCI -12
JAMESTOWN      FAIR      -1  -6  79 S7        30.37F WCI -14
$$





USA.gov is the U.S. government's official web portal to all federal, state and local government web resources and services.